OneWeb SL0556

operational
NORAD ID: 55798 Int'l Des: 2023-029 Owner: ONEWEBN Country: UK Constellation: oneweb
LEOCIRCULARPOLARONEWEB_TYPE

关于 OneWeb SL0556

正在加载描述...

实时位置

正在加载3D地球...

即将过境

高度历史

Altitude vs Time

uPlot chart will show altitude changes over time

两行轨道根数

1 55798U 23029C 25304.07136903 .00000032 00000-0 46213-4 0 9998
2 55798 87.9198 320.1803 0001350 111.4939 248.6338 13.20770469130908
Epoch: Oct 31, 2025 • Age: 18 hours

当前状态

高度 1197.2 km
速度 7.25 km/s
星下点 -38.22°S, 17.49°W
发射日期 Mar 9, 2023
运行时间 2.6 years
类型 internet

技术详情

分类 Payload
质量 148.00 kg
干质量 140.00 kg
总质量 148.00 kg
长度 1.30 m
直径 1.00 m
跨度 5.00 m
形状 Trapezoid+2 pan
制造商 ONEWUS
平台类型 ARROW
阶段状态 In Orbit
所有者/国家 ONEWEBN/UK

大型星座

Loading constellations...